Location: Wayah Bald
(35.1806°N, 83.5603°W)
Time: 07:58:59
(UTC-04:00)

Meteor 1-27 Rocket - Visible Passes

Search period start: 21 August 2017 00:00
Search period end: 31 August 2017 00:00
Orbit: 829 x 911 km, 81.3° (Epoch: 20 August)

Date Brightness Start Highest point End Pass type
(mag) Time Alt. Az. Time Alt. Az. Time Alt. Az.
28 Aug 5.9 06:37:39 10° SSE 06:42:39 31° E 06:47:34 10° NNE visible
29 Aug 5.8 06:31:24 10° SSE 06:36:26 32° E 06:41:24 10° NNE visible
30 Aug 5.7 06:25:09 10° SSE 06:30:14 33° E 06:35:14 10° NNE visible
